Погода в Воздвиженском

Россия / Ставропольский край     45°49′52″N   43°39′06″E
темп.,
°C
ветер,
м/с
пор.,
м/с
влажн.,
%
обл.,
%
осадки,
мм/ч
давл.,
гПа
погр.,
м
30 ноября, вт
вт3000:00+10ююв8177824 0.0 1007327
03:00+11ююв71670100 0.0 1005304
06:00+12зюз51255100 0.0 1005282
09:00+14з81968100 0.0 10061198
12:00+14з91660100 1.4 1006900
15:00+15з61347100 1.4 1005950
18:00+11ююв457153 0.0 100375
21:00+11юв61391100 0.2 997350
1 декабря, ср
ср100:00+11ююв6157997 0.3 994524
03:00+10зюз61569100 6.9 9981055
06:00+10з71667100 0.0 996957
09:00+6зюз172277100 0.0 9991100
12:00+4з131987100 0.0 10051082
15:00+6зсз10175799 0.1 10061304
18:00+4зсз814575 0.0 1008751
21:00+3зюз396399 0.0 1009222
2 декабря, чт
чт200:00+5ююз71368100 0.0 1009549
03:00+3зюз61092100 1.8 1011542
06:00+3юз5996100 0.7 1014375
09:00+4зюз6108446 0.7 1016535
12:00+7з7105571 0.0 10171535
15:00+8з58515 0.0 10181431
18:00+4зюз35695 0.0 102072
21:00+3юз35790 0.0 102185
3 декабря, пт
пт300:00+3ююз45780 0.0 102275
03:00+3ююз34755 0.0 102254
06:00+3ю45781 0.0 102271
09:00+4ююв497282 0.0 1023238
12:00+9ююв695284 0.0 1022587
15:00+9юв5951100 0.0 1021567
18:00+6юв486399 0.0 1022165
21:00+4юв498567 0.0 1021185
4 декабря, сб
сб400:00+4юв36935 0.0 1021104
03:00+3юв479567 0.0 1020121
06:00+3юв3696100 0.0 1020102
09:00+4ююв369641 0.0 1020165
12:00+8юв44735 0.0 1018340
15:00+9вюв35723 0.0 1017323
18:00+6юв488816 0.0 1016151
21:00+5вюв4890100 0.0 1016155